Lid_Strength_Index
5 3 2 1 1 1 1 1 1 1 1 2 1 2 2 2 2 2 2 2 3 3 3 4 3 4 5 5 6 6 7 7 8 7 5 8 11 11 11 11 11 12 11
5 3 3 4 2 2 1 1 1 1 1 1 1 1 2 2 2 2 2 2 2 3 3 3 4 4 4 5 5 6 6 6 7 8 6 9 12 12 12 13 12 13 13
7 7 8 8 8 8 7 7 6 6 6 6 5 2 2 2 2 2 2 2 2 2 2 3 3 4 4 4 5 6 6 6 7 7 7 7 11 14 13 15 14 14 14
9 9 11 11 10 9 9 8 7 7 8 8 8 8 10 9 9 9 8 8 8 7 5 4 3 3 3 4 4 5 5 6 7 7 8 8 14 16 14 15 16 16 15
10 11 11 11 11 11 11 10 10 9 9 9 9 9 10 10 11 11 11 10 9 9 9 9 8 11 12 11 9 8 6 6 7 8 9 9 15 16 15 15 15 16 16
11 12 12 12 12 12 12 12 12 11 12 11 12 11 11 11 12 13 13 11 11 11 11 11 11 13 11 12 11 11 10 10 10 9 9 9 11 14 15 16 16 17 18
13 13 13 13 13 13 13 13 13 13 13 13 13 12 12 13 13 13 13 13 12 12 12 12 13 12 13 13 12 12 12 12 10 10 10 10 12 14 15 16 16 15 15
13 13 13 13 14 14 13 13 14 14 14 14 14 14 14 14 13 13 13 13 13 13 13 13 13 13 14 14 14 13 13 13 13 12 12 11 11 13 13 14 15 16 18
14 14 14 14 14 14 14 14 15 15 16 15 15 15 15 15 13 12 12 14 14 13 13 13 13 13 12 12 13 14 14 14 13 12 11 11 11 11 12 15 17 17 20
16 16 15 14 15 15 15 15 16 16 16 16 16 16 14 14 12 11 10 11 11 12 11 11 12 11 10 10 12 13 13 12 13 13 13 12 11 12 12 13 15 15 19
15 15 15 15 15 15 15 15 15 14 14 14 14 14 14 14 13 11 11 11 11 11 11 11 11 10 9 9 10 12 12 11 12 13 14 13 13 13 12 13 13 12 16
16 15 15 14 13 13 14 14 14 15 15 16 16 16 15 14 13 12 11 11 11 12 12 11 11 9 9 10 10 9 9 11 12 13 14 14 14 14 14 14 13 14 14
18 17 15 15 14 14 14 15 15 15 15 15 15 16 15 14 13 12 12 12 12 11 11 11 10 10 10 11 10 10 12 12 13 14 14 15 16 15 15 16 16 16 15
21 16 14 14 16 15 13 14 14 15 15 15 16 16 16 15 15 14 13 13 13 13 12 12 11 11 12 13 14 13 12 13 13 14 16 17 15 15 16 15 16 17 18
16 15 15 14 14 17 16 14 14 14 14 15 15 15 16 16 15 14 14 15 15 14 18 18 17 16 14 14 14 16 15 15 14 15 16 17 16 16 16 15 16 17 19
16 15 15 15 15 15 17 18 15 13 14 13 14 14 15 14 14 14 14 14 14 15 21 21 21 20 18 16 13 13 16 16 15 14 15 15 16 16 16 16 16 18 19
17 16 16 15 16 16 17 22 23 20 16 16 15 15 15 14 14 15 15 16 16 19 23 23 23 22 20 17 15 14 14 13 15 14 14 15 15 15 16 17 17 18 18
19 16 16 16 16 16 18 26 28 28 28 27 21 17 17 16 16 16 17 20 23 22 25 25 24 23 21 18 18 16 15 15 15 14 15 14 14 14 15 16 17 18 19
24 18 16 17 16 17 18 26 29 30 31 31 29 21 23 18 18 19 20 28 30 26 25 25 24 23 22 19 18 18 17 16 16 15 15 15 15 15 16 16 17 18 18
17 18 17 24 20 17 20 27 29 31 32 33 32 28 30 28 29 28 29 29 28 28 26 25 24 23 23 21 20 19 19 19 18 17 16 16 16 16 17 17 17 19 20
16 17 17 25 28 30 29 27 30 32 33 33 33 30 19 34 34 34 34 30 29 28 27 26 25 24 23 22 21 20 21 20 19 19 18 17 17 17 17 18 19 20 20
16 17 21 18 27 30 30 32 31 32 33 33 33 32 21 34 35 34 34 33 33 31 29 29 26 24 23 23 22 22 22 21 19 19 19 19 18 18 18 18 19 20 20
22 27 29 31 30 30 31 33 32 32 33 34 35 33 34 35 35 35 35 35 34 31 29 29 28 26 25 24 23 24 25 24 22 21 18 19 19 20 19 19 19 20 20
27 27 27 30 31 31 31 31 32 30 32 33 34 34 33 34 34 34 34 35 34 33 32 30 28 28 26 25 25 25 25 26 25 25 23 21 20 20 20 21 21 20 20
27 28 28 26 27 27 28 29 29 29 29 30 31 33 33 34 33 33 34 34 34 34 32 31 30 28 27 25 24 24 23 23 22 22 23 21 21 21 21 21 22 22 22
27 27 26 28 28 29 27 26 26 27 27 28 29 30 31 32 31 33 34 34 33 33 32 32 31 28 26 25 23 20 20 19 23 22 25 24 22 22 21 22 22 22 22